TimeCDT,TemperatureF,Dew PointF,Humidity,Sea Level PressureIn,VisibilityMPH,Wind Direction,Wind SpeedMPH,Gust SpeedMPH,PrecipitationIn,Events,Conditions,WindDirDegrees,DateUTC
12:53 AM,73.9,55.9,53,30.06,10.0,SSE,8.1,-,N/A,,Clear,160,2013-08-26 05:53:00
1:53 AM,69.1,55.0,61,30.08,10.0,South,6.9,-,N/A,,Clear,170,2013-08-26 06:53:00
2:53 AM,71.1,57.0,61,30.07,10.0,South,11.5,-,N/A,,Clear,180,2013-08-26 07:53:00
3:53 AM,69.1,57.0,65,30.07,10.0,South,9.2,-,N/A,,Clear,180,2013-08-26 08:53:00
4:53 AM,68.0,57.9,70,30.08,10.0,South,9.2,-,N/A,,Clear,180,2013-08-26 09:53:00
5:53 AM,68.0,57.9,70,30.07,10.0,South,8.1,-,N/A,,Clear,180,2013-08-26 10:53:00
6:53 AM,66.0,57.0,73,30.09,10.0,SSW,6.9,-,N/A,,Clear,200,2013-08-26 11:53:00
7:53 AM,64.9,57.9,78,30.11,10.0,South,5.8,-,N/A,,Clear,190,2013-08-26 12:53:00
8:53 AM,73.0,59.0,61,30.10,10.0,South,12.7,-,N/A,,Clear,190,2013-08-26 13:53:00
9:53 AM,78.1,57.9,50,30.10,10.0,SSW,16.1,23.0,N/A,,Clear,200,2013-08-26 14:53:00
10:53 AM,81.0,59.0,47,30.10,10.0,SSW,15.0,21.9,N/A,,Clear,210,2013-08-26 15:53:00
11:53 AM,84.9,57.9,40,30.09,10.0,SW,12.7,23.0,N/A,,Clear,220,2013-08-26 16:53:00
12:53 PM,87.1,57.0,36,30.06,10.0,SSW,12.7,-,N/A,,Clear,200,2013-08-26 17:53:00
1:53 PM,89.1,55.0,31,30.05,10.0,South,12.7,23.0,N/A,,Partly Cloudy,170,2013-08-26 18:53:00
2:53 PM,89.1,54.0,30,30.02,10.0,South,11.5,23.0,N/A,,Partly Cloudy,170,2013-08-26 19:53:00
3:53 PM,91.9,53.1,27,30.00,10.0,SSE,18.4,24.2,N/A,,Partly Cloudy,160,2013-08-26 20:53:00
4:53 PM,90.0,51.1,26,29.99,10.0,SSE,12.7,29.9,N/A,,Scattered Clouds,160,2013-08-26 21:53:00
5:53 PM,91.0,53.1,27,29.98,10.0,SSE,17.3,-,N/A,,Scattered Clouds,150,2013-08-26 22:53:00
6:53 PM,89.1,52.0,28,29.98,10.0,South,12.7,23.0,N/A,,Clear,170,2013-08-26 23:53:00
7:53 PM,86.0,52.0,31,29.98,10.0,SSE,18.4,24.2,N/A,,Clear,160,2013-08-27 00:53:00
8:53 PM,82.0,53.1,37,29.98,10.0,SSE,16.1,-,N/A,,Clear,150,2013-08-27 01:53:00
9:53 PM,79.0,52.0,39,29.99,10.0,South,11.5,-,N/A,,Clear,170,2013-08-27 02:53:00
10:53 PM,75.0,53.1,46,30.01,10.0,South,9.2,-,N/A,,Clear,180,2013-08-27 03:53:00
11:53 PM,72.0,53.1,51,30.01,10.0,South,8.1,-,N/A,,Clear,170,2013-08-27 04:53:00